Regional Weather Roundup
Issued by NWS

Home | Current Version | Previous Version | Graphics & Text | Print | Product List | Glossary On
Versions: 1 2 3 4 5 6 7 8 9 10 11 12 13 14 15 16 17 18 19 20 21 22 23 24 25 26 27 28 29 30 31 32 33 34 35 36 37 38 39 40 41 42 43 44 45 46 47 48 49 50
000
ASUS45 KBOI 010810
RWRID

IDAHO REGIONAL WEATHER ROUNDUP
NATIONAL WEATHER SERVICE BOISE ID
200 AM MDT SUN MAY 01 2016

NOTE: "FAIR" INDICATES FEW OR NO CLOUDS BELOW 12000 FEET
WITH NO SIGNIFICANT WEATHER AND/OR OBSTRUCTIONS TO VISIBILITY

IDZ012-014-010900-
SOUTHWEST IDAHO


CITY           SKY/WX    TMP DP  RH WIND       PRES   REMARKS
BOISE          CLEAR     46  36  68 CALM      30.10R
CALDWELL       CLEAR     47  37  68 W9        30.10R
MOUNTAIN HOME  CLEAR     42  36  79 W6        30.10R
$$

IDZ016-017-010900-
SOUTHCENTRAL IDAHO


CITY           SKY/WX    TMP DP  RH WIND       PRES   REMARKS
BURLEY         CLOUDY    48  44  86 N3        30.10S
JEROME         CLOUDY    45  42  89 CALM      30.12F
TWIN FALLS     CLOUDY    46  41  82 SW7       30.11F
$$

IDZ019>023-010900-
SOUTHEAST IDAHO


CITY           SKY/WX    TMP DP  RH WIND       PRES   REMARKS
IDAHO FALLS    CLOUDY    39  34  82 N5        30.17R
POCATELLO      CLOUDY    42  37  82 CALM      30.14R
REXBURG        CLOUDY    41  28  60 E5        30.17S
$$

IDZ006-010-011-018-031-032-010900-
CENTRAL IDAHO MOUNTAINS


CITY           SKY/WX    TMP DP  RH WIND       PRES   REMARKS
MCCALL         CLEAR     39  33  79 VRB5      30.16R
HAILEY         CLOUDY    41  36  81 NW7       30.16S
STANLEY          N/A     29  25  85 S3        30.20S
SALMON         CLOUDY    45  39  81 CALM      30.23S
CHALLIS        PTCLDY    41  28  60 NW7       30.20R
$$

IDZ002-004-006-007-026-010900-
NORTHERN IDAHO


CITY           SKY/WX    TMP DP  RH WIND       PRES   REMARKS
LEWISTON       CLEAR     48  43  82 CALM      30.22S
LOWELL           N/A     45  43  93 CALM      30.26R
COEUR D`ALENE  CLEAR     43  39  87 CALM      30.25S
MULLAN PASS    CLEAR     38  28  67 E7        30.29S WCI  33
$$



USA.gov is the U.S. government's official web portal to all federal, state and local government web resources and services.